TimeEST,TemperatureF,Dew PointF,Humidity,Sea Level PressureIn,VisibilityMPH,Wind Direction,Wind SpeedMPH,Gust SpeedMPH,PrecipitationIn,Events,Conditions,WindDirDegrees,DateUTC
12:15 AM,36.5,34.9,94,29.49,10.0,West,11.5,19.6,N/A,,Light Drizzle,280,2012-12-27 05:15:00
12:35 AM,36.5,34.9,94,29.49,10.0,West,9.2,-,N/A,,Overcast,280,2012-12-27 05:35:00
12:55 AM,36.5,34.3,92,29.50,10.0,WNW,5.8,9.2,N/A,,Overcast,290,2012-12-27 05:55:00
1:15 AM,36.5,34.2,91,29.51,10.0,WNW,8.1,-,N/A,,Mostly Cloudy,300,2012-12-27 06:15:00
1:35 AM,36.0,33.6,91,29.52,10.0,WNW,5.8,-,N/A,,Mostly Cloudy,290,2012-12-27 06:35:00
1:55 AM,36.0,33.1,89,29.53,10.0,WNW,8.1,-,N/A,,Scattered Clouds,300,2012-12-27 06:55:00
2:15 AM,35.8,32.9,89,29.54,10.0,NW,9.2,-,N/A,,Clear,310,2012-12-27 07:15:00
2:35 AM,35.8,32.7,89,29.54,10.0,NW,8.1,16.1,N/A,,Clear,310,2012-12-27 07:35:00
2:55 AM,35.6,32.5,89,29.56,10.0,WNW,5.8,-,N/A,,Clear,290,2012-12-27 07:55:00
3:15 AM,35.2,32.4,89,29.57,10.0,West,3.5,-,N/A,,Clear,280,2012-12-27 08:15:00
3:35 AM,34.7,32.2,91,29.58,10.0,West,3.5,-,N/A,,Clear,270,2012-12-27 08:35:00
3:55 AM,33.3,32.0,95,29.58,10.0,SW,3.5,-,N/A,,Clear,230,2012-12-27 08:55:00
4:15 AM,33.3,32.0,95,29.59,10.0,WNW,4.6,-,N/A,,Scattered Clouds,300,2012-12-27 09:15:00
4:55 AM,33.8,32.0,93,29.61,10.0,Calm,Calm,-,N/A,,Mostly Cloudy,0,2012-12-27 09:55:00
5:15 AM,32.5,32.0,98,29.61,10.0,Calm,Calm,-,N/A,,Scattered Clouds,0,2012-12-27 10:15:00
5:35 AM,32.0,31.1,96,29.63,10.0,WNW,3.5,-,N/A,,Scattered Clouds,290,2012-12-27 10:35:00
5:55 AM,31.8,31.1,97,29.64,10.0,Calm,Calm,-,N/A,,Scattered Clouds,0,2012-12-27 10:55:00
6:15 AM,30.4,30.2,99,29.65,10.0,NW,6.9,-,N/A,,Scattered Clouds,310,2012-12-27 11:15:00
6:35 AM,31.6,30.7,96,29.66,10.0,West,4.6,-,N/A,,Scattered Clouds,260,2012-12-27 11:35:00
6:55 AM,31.3,31.1,99,29.68,10.0,Calm,Calm,-,N/A,,Clear,0,2012-12-27 11:55:00
7:15 AM,31.6,30.7,96,29.69,10.0,Calm,Calm,-,N/A,,Clear,0,2012-12-27 12:15:00
7:35 AM,33.1,31.8,95,29.71,10.0,Calm,Calm,-,N/A,,Mostly Cloudy,0,2012-12-27 12:35:00
7:55 AM,34.0,32.0,92,29.73,10.0,NW,4.6,-,N/A,,Overcast,320,2012-12-27 12:55:00
8:15 AM,37.4,31.3,79,29.75,10.0,NW,11.5,21.9,N/A,,Overcast,310,2012-12-27 13:15:00
8:35 AM,38.7,30.9,74,29.76,10.0,NW,12.7,18.4,N/A,,Overcast,310,2012-12-27 13:35:00
8:55 AM,39.2,30.7,72,29.77,10.0,NW,10.4,17.3,N/A,,Overcast,310,2012-12-27 13:55:00
9:15 AM,40.1,30.0,67,29.79,10.0,WNW,13.8,18.4,N/A,,Mostly Cloudy,300,2012-12-27 14:15:00
9:35 AM,40.1,29.7,66,29.79,10.0,WNW,11.5,-,N/A,,Overcast,300,2012-12-27 14:35:00
9:55 AM,41.2,30.7,66,29.81,10.0,WNW,9.2,-,N/A,,Mostly Cloudy,290,2012-12-27 14:55:00
10:15 AM,42.8,30.4,62,29.82,10.0,WNW,9.2,17.3,N/A,,Overcast,300,2012-12-27 15:15:00
10:35 AM,43.7,30.4,59,29.82,10.0,WNW,12.7,16.1,N/A,,Mostly Cloudy,290,2012-12-27 15:35:00
10:55 AM,41.7,28.8,60,29.83,10.0,NW,20.7,28.8,N/A,,Scattered Clouds,310,2012-12-27 15:55:00
11:35 AM,42.6,28.0,56,29.84,10.0,NW,21.9,31.1,N/A,,Scattered Clouds,320,2012-12-27 16:35:00
11:55 AM,41.9,27.1,56,29.84,10.0,WNW,21.9,31.1,N/A,,Scattered Clouds,300,2012-12-27 16:55:00
12:15 PM,41.7,28.2,59,29.84,10.0,NW,27.6,-,N/A,,Scattered Clouds,320,2012-12-27 17:15:00
12:35 PM,41.2,27.1,57,29.85,10.0,NW,11.5,32.2,N/A,,Mostly Cloudy,310,2012-12-27 17:35:00
12:55 PM,41.5,27.7,58,29.86,10.0,WNW,9.2,23.0,N/A,,Overcast,300,2012-12-27 17:55:00
1:15 PM,42.3,28.4,58,29.85,10.0,NW,10.4,17.3,N/A,,Overcast,310,2012-12-27 18:15:00
1:35 PM,43.2,29.3,58,29.86,10.0,NW,12.7,18.4,N/A,,Mostly Cloudy,310,2012-12-27 18:35:00
1:55 PM,41.5,28.0,59,29.87,10.0,NW,18.4,28.8,N/A,,Scattered Clouds,320,2012-12-27 18:55:00
2:15 PM,42.6,28.6,58,29.89,10.0,NW,17.3,27.6,N/A,,Scattered Clouds,320,2012-12-27 19:15:00
2:35 PM,42.8,27.7,55,29.89,10.0,NW,18.4,27.6,N/A,,Scattered Clouds,320,2012-12-27 19:35:00
2:55 PM,42.4,27.9,56,29.90,10.0,NW,13.8,23.0,N/A,,Clear,320,2012-12-27 19:55:00
3:15 PM,41.9,27.9,58,29.91,10.0,NNW,17.3,24.2,N/A,,Clear,330,2012-12-27 20:15:00
3:35 PM,41.4,27.5,58,29.92,10.0,NNW,15.0,-,N/A,,Clear,330,2012-12-27 20:35:00
3:55 PM,41.0,27.5,59,29.94,10.0,NW,13.8,-,N/A,,Clear,310,2012-12-27 20:55:00
4:15 PM,40.5,27.0,59,29.95,10.0,NW,9.2,16.1,N/A,,Scattered Clouds,320,2012-12-27 21:15:00
4:35 PM,39.2,27.0,62,29.96,10.0,NNW,9.2,-,N/A,,Scattered Clouds,330,2012-12-27 21:35:00
4:55 PM,37.4,26.6,65,29.96,10.0,NW,13.8,-,N/A,,Clear,320,2012-12-27 21:55:00
5:15 PM,37.4,26.8,66,29.97,10.0,NW,11.5,-,N/A,,Clear,320,2012-12-27 22:15:00
5:35 PM,38.5,25.5,60,29.98,10.0,WNW,10.4,19.6,N/A,,Clear,300,2012-12-27 22:35:00
5:55 PM,37.4,26.1,64,29.99,10.0,WNW,9.2,-,N/A,,Clear,300,2012-12-27 22:55:00
6:15 PM,37.6,25.2,61,30.00,10.0,Calm,Calm,-,N/A,,Clear,0,2012-12-27 23:15:00
6:35 PM,36.1,25.7,66,30.00,10.0,Calm,Calm,-,N/A,,Clear,0,2012-12-27 23:35:00
7:15 PM,34.2,25.7,71,30.01,10.0,Calm,Calm,-,N/A,,Clear,0,2012-12-28 00:15:00
7:35 PM,33.6,25.5,72,30.02,10.0,Calm,Calm,-,N/A,,Clear,0,2012-12-28 00:35:00
7:55 PM,32.0,25.5,77,30.02,10.0,WNW,6.9,-,N/A,,Clear,300,2012-12-28 00:55:00
8:15 PM,31.1,25.5,80,30.03,10.0,Calm,Calm,-,N/A,,Clear,0,2012-12-28 01:15:00
8:35 PM,32.5,25.3,75,30.04,10.0,SW,4.6,-,N/A,,Clear,220,2012-12-28 01:35:00
8:55 PM,30.4,26.2,85,30.04,10.0,West,5.8,-,N/A,,Clear,270,2012-12-28 01:55:00
9:15 PM,30.7,25.7,82,30.04,10.0,WNW,4.6,-,N/A,,Clear,300,2012-12-28 02:15:00
9:35 PM,31.1,25.2,79,30.05,10.0,NW,5.8,-,N/A,,Clear,320,2012-12-28 02:35:00
9:55 PM,30.7,25.0,79,30.06,10.0,Calm,Calm,-,N/A,,Clear,0,2012-12-28 02:55:00
10:15 PM,28.2,25.5,90,30.07,10.0,NW,3.5,-,N/A,,Clear,310,2012-12-28 03:15:00
10:35 PM,27.9,25.0,89,30.08,10.0,WNW,5.8,-,N/A,,Clear,300,2012-12-28 03:35:00
10:55 PM,30.6,25.0,80,30.08,10.0,Calm,Calm,-,N/A,,Clear,0,2012-12-28 03:55:00
11:15 PM,30.7,24.8,79,30.08,10.0,Calm,Calm,-,N/A,,Clear,0,2012-12-28 04:15:00
11:35 PM,26.4,24.8,94,30.08,10.0,West,8.1,-,N/A,,Clear,280,2012-12-28 04:35:00
11:55 PM,29.8,25.5,84,30.08,10.0,West,5.8,-,N/A,,Clear,280,2012-12-28 04:55:00